Wind_Speed
4 8 19 16 2 3 4 5 6 4 4 6 9 8 8 5 5 8 9 10 9 11 15 26 28 33 32 34 35 36 37 36 35 32 30 27 27 27 28 28 26 24 22 20
4 22 12 9 6 6 4 4 6 1 2 4 3 10 8 4 7 8 11 10 10 6 7 17 22 23 28 33 34 37 37 37 37 35 35 30 27 26 26 25 25 25 25 24
8 6 15 12 7 11 6 6 4 3 3 2 2 7 6 7 7 6 9 7 7 11 10 8 16 23 23 28 29 32 34 36 37 38 35 30 21 23 21 24 24 25 24 25
5 7 22 8 15 12 13 5 6 7 6 4 3 5 6 6 10 9 13 10 10 9 6 4 11 18 20 20 19 19 23 28 33 35 35 32 27 22 26 26 22 23 24 24
7 9 15 16 10 9 8 5 8 5 5 5 1 1 7 2 6 10 15 11 8 6 7 9 11 13 12 12 12 13 15 17 22 33 34 32 30 27 21 22 18 19 20 20
5 1 8 10 4 9 6 6 5 4 3 1 5 6 5 5 7 4 4 8 8 7 6 9 11 10 7 6 8 12 14 16 18 20 30 32 32 27 22 16 15 18 17 18
3 3 1 3 6 2 7 5 2 1 1 5 1 3 8 6 7 6 6 7 8 8 8 8 8 10 8 6 6 6 9 11 13 18 21 27 29 27 19 18 16 17 17 16
6 4 6 4 6 8 4 7 5 6 4 3 3 6 6 7 2 7 4 7 8 8 6 7 9 10 10 8 8 8 6 8 11 12 17 20 23 22 18 17 12 11 11 13
6 4 3 1 1 5 4 6 4 6 3 3 4 6 9 6 3 2 6 8 8 8 8 8 11 12 11 10 8 9 10 9 12 13 14 15 18 20 19 13 12 10 8 8
6 4 1 1 2 2 6 8 3 2 5 3 4 5 6 6 9 6 7 9 8 7 7 7 10 12 11 11 11 10 10 11 12 14 14 15 17 19 17 13 10 9 10 10
4 4 2 2 5 8 3 3 1 5 4 6 2 6 7 8 9 12 12 10 9 8 8 7 9 11 12 12 11 12 13 14 14 15 17 17 17 17 15 12 10 11 11 10
3 5 4 5 1 1 0 5 5 7 7 2 4 6 1 5 4 8 10 9 8 7 8 7 13 14 13 13 13 14 14 16 15 17 18 19 18 17 17 16 14 13 13 12
7 1 4 3 3 1 5 4 3 5 3 6 5 5 1 3 4 4 8 9 8 8 8 7 10 13 14 14 14 15 15 17 17 18 19 19 18 18 19 18 17 15 16 16
8 4 7 10 6 7 6 6 5 5 3 4 7 6 5 6 6 3 4 7 11 11 11 8 7 13 17 16 16 17 18 18 20 21 22 23 22 22 21 21 18 17 16 15
6 5 3 3 3 2 6 13 15 10 17 9 13 10 8 7 7 6 7 7 8 8 9 10 9 12 19 20 19 19 19 20 21 23 23 23 22 22 21 21 18 16 14 13
2 3 2 3 5 1 0 7 13 22 11 17 4 7 6 5 6 6 8 9 11 11 12 11 10 15 19 24 25 24 23 23 23 24 24 23 22 21 20 19 17 14 12 10
8 6 4 5 2 3 5 12 15 11 15 10 13 18 5 3 7 9 10 12 13 12 13 14 14 19 21 26 29 28 26 24 24 25 23 22 20 19 18 16 14 11 9 7
6 7 3 3 2 4 8 4 16 17 9 17 3 4 10 8 9 8 9 12 13 11 10 11 19 22 27 30 28 27 26 26 26 24 22 20 18 17 15 13 11 9 7 6
2 5 4 6 4 5 4 5 7 9 15 11 18 8 7 5 2 6 6 8 11 9 10 17 21 25 29 32 31 30 28 27 26 24 22 20 17 16 13 11 9 8 7 6
3 5 4 3 6 10 1 5 4 6 11 7 11 11 10 7 5 8 2 3 3 9 19 25 29 30 33 33 33 33 31 28 26 24 21 18 15 14 12 10 9 8 6 5
3 2 8 3 4 7 7 2 1 8 6 2 2 4 7 6 4 1 2 3 3 4 13 22 27 29 32 35 35 32 31 28 25 22 19 16 14 13 11 10 8 6 5 4
10 9 5 3 1 13 7 4 9 4 2 3 3 3 5 4 4 3 4 4 5 9 13 18 22 23 31 35 35 32 29 26 23 20 17 14 13 11 9 7 6 5 4 3
5 5 5 10 6 3 5 1 1 2 5 3 5 3 6 6 5 5 5 5 5 11 14 18 24 26 28 31 33 33 29 26 22 19 16 15 13 10 7 6 6 5 4 3
4 3 3 3 4 3 5 1 2 3 4 4 4 4 6 4 6 5 5 5 6 13 17 24 27 26 29 30 30 32 29 24 21 20 17 14 11 10 8 7 5 4 4 4
3 8 6 2 3 1 3 4 6 5 5 4 3 3 3 3 3 5 5 5 10 14 16 21 20 22 27 27 25 25 25 23 21 18 17 15 13 11 10 8 6 4 3 2
4 5 5 4 6 3 2 7 5 6 5 6 5 2 1 5 7 5 5 12 15 17 20 22 22 26 29 28 27 25 23 23 22 20 18 16 14 12 10 8 7 5 4 3
Wind_Direction
163 174 204 209 103 230 149 171 195 222 178 142 202 237 238 210 210 213 217 218 217 227 231 219 213 216 216 212 210 211 213 214 211 209 207 211 218 229 231 233 235 234 233 229
147 212 184 222 222 247 230 206 215 210 112 138 164 249 251 221 238 219 207 223 218 214 224 223 212 203 208 209 210 209 213 215 214 215 215 214 217 224 236 237 237 236 236 238
183 175 198 208 212 218 232 195 225 213 116 73 96 290 246 236 232 236 240 230 218 203 207 207 203 201 195 203 206 211 214 216 216 215 215 218 224 226 233 237 239 238 237 236
217 211 180 175 212 196 229 192 209 157 141 193 164 264 258 241 244 216 231 220 224 208 211 173 179 178 181 182 191 201 209 219 220 216 218 217 208 206 223 231 239 245 241 241
210 163 187 190 196 181 225 149 175 158 136 122 206 110 265 249 249 237 231 227 212 213 204 162 154 158 163 180 194 206 209 207 216 222 223 221 215 218 229 231 241 246 244 244
184 236 170 180 146 174 137 99 60 62 99 213 205 164 268 205 210 252 192 208 184 164 144 128 142 151 160 192 211 226 225 220 215 213 219 222 221 223 226 225 242 244 242 244
136 189 220 134 105 86 157 147 128 90 226 210 101 154 247 263 248 232 199 180 156 153 156 147 147 149 152 178 180 200 210 212 212 216 213 216 222 221 224 229 235 240 234 232
148 203 177 167 182 169 188 161 156 173 185 223 97 225 245 239 285 262 234 158 144 160 169 158 158 153 147 152 161 165 160 177 179 183 197 208 210 212 217 215 211 214 222 222
148 197 338 86 72 159 183 204 145 98 27 74 215 280 295 231 248 104 147 141 172 171 168 156 157 158 153 151 155 158 150 141 150 153 152 165 185 197 188 186 192 193 200 192
186 128 342 322 198 98 173 156 129 356 131 241 272 280 235 237 221 172 176 185 192 168 155 153 161 155 151 147 147 151 150 153 149 151 147 155 161 168 168 197 207 181 170 159
125 101 262 147 213 168 143 192 125 117 149 171 184 258 224 220 198 195 202 194 182 171 170 166 157 150 151 145 144 145 144 141 139 141 141 144 144 149 148 183 172 161 156 153
130 116 146 196 238 291 63 238 164 185 208 199 159 259 183 227 212 212 196 182 166 166 166 168 161 155 151 151 153 152 152 148 145 143 140 139 139 139 140 147 146 145 143 138
175 158 97 39 3 157 197 209 174 108 74 195 153 252 127 275 278 228 180 163 161 156 165 166 159 161 162 162 160 158 156 152 152 151 144 142 140 141 138 135 135 135 133 127
111 160 166 190 193 137 187 188 188 137 160 171 221 228 274 219 204 184 163 161 168 177 175 169 164 169 172 170 166 161 156 154 153 147 143 139 136 136 135 131 130 129 127 123
150 200 134 49 357 118 168 184 187 198 215 194 237 210 231 236 216 191 177 164 163 178 177 179 176 171 170 171 168 165 159 157 155 146 141 136 134 135 134 131 130 127 125 119
122 238 111 12 346 73 306 198 188 220 218 238 346 250 211 187 135 178 180 177 190 196 194 187 177 172 173 174 173 168 165 161 159 150 143 140 139 140 135 133 131 129 122 112
138 130 116 231 334 72 305 207 210 217 217 212 222 239 159 193 197 194 193 198 205 201 195 189 184 180 178 178 176 171 166 162 160 151 145 144 145 142 136 133 131 122 113 103
133 111 94 162 44 199 263 177 207 208 213 214 209 142 185 197 208 209 206 195 210 202 187 186 184 180 179 180 175 169 167 164 159 152 147 149 151 144 139 136 132 123 115 104
47 128 119 148 201 295 243 212 151 176 245 210 224 201 200 190 111 269 203 210 217 206 197 191 185 171 176 177 175 170 165 164 160 153 156 158 156 151 149 143 132 124 113 100
50 70 122 131 164 219 217 191 146 111 264 224 205 191 187 139 205 235 28 27 211 185 181 170 173 174 172 176 174 170 167 166 163 162 160 158 157 153 149 142 138 130 122 99
123 68 201 168 224 284 251 221 147 154 245 131 145 157 154 185 208 108 40 30 58 122 150 164 163 163 169 173 173 168 169 171 168 165 162 161 160 159 155 152 149 132 117 97
169 161 199 113 115 251 171 76 169 205 53 137 100 90 125 120 129 107 91 100 97 109 131 151 145 151 169 173 175 168 171 169 168 167 165 164 163 156 153 149 135 122 110 121
198 188 180 184 206 213 200 178 93 119 134 158 112 111 134 146 188 170 156 150 140 141 142 157 155 155 167 173 179 170 171 170 168 168 167 164 162 163 160 153 155 154 136 104
251 190 178 97 200 204 163 122 138 112 114 139 119 150 168 171 175 172 158 161 154 159 159 166 162 159 166 176 180 179 172 173 172 171 169 168 171 167 164 163 152 133 119 86
195 142 166 293 304 78 198 197 168 147 132 130 103 140 194 160 189 182 182 180 180 178 178 173 167 163 168 173 175 176 176 177 176 175 173 174 177 177 171 167 166 153 135 66
192 172 168 216 185 157 171 177 172 174 190 186 164 172 191 185 200 185 202 196 185 181 184 181 180 177 174 175 177 179 184 184 183 180 182 184 183 179 176 176 175 176 175 181
Height
807 817 814 811 817 815 822 823 827 822 818 824 832 829 821 816 818 820 819 820 818 818 811 815 816 820 825 827 830 833 837 840 843 847 851 853 854 857 859 861 864 866 868 870
817 809 815 817 817 819 822 825 830 826 821 825 829 830 823 819 818 814 812 815 812 811 810 811 813 815 819 823 826 828 832 836 839 841 845 847 849 854 857 858 860 862 864 867
813 807 815 816 819 821 822 829 830 823 825 825 827 832 821 815 814 812 809 806 804 805 807 808 810 812 814 819 823 826 828 831 834 837 841 845 848 851 853 855 856 857 860 861
810 800 804 815 815 815 827 816 822 829 830 841 828 850 827 817 815 810 803 805 802 802 804 804 808 810 812 815 820 823 825 829 832 834 837 839 842 845 848 849 852 854 856 857
801 802 806 804 804 809 814 815 824 826 829 834 835 844 826 813 810 807 799 799 798 801 804 804 808 811 813 815 818 821 823 824 828 830 832 835 838 841 844 847 850 849 851 853
796 795 795 796 800 801 809 817 823 832 836 842 832 837 828 814 798 789 789 794 798 803 806 806 809 810 812 814 815 818 820 821 823 826 828 830 834 838 841 844 847 847 846 849
797 798 795 793 803 803 805 819 842 841 848 842 840 843 819 799 794 790 785 794 798 802 806 806 808 810 812 816 815 817 818 818 819 821 824 827 831 833 836 840 843 845 845 845
805 810 796 791 794 802 804 807 834 847 854 840 840 837 809 793 789 789 786 794 798 803 805 806 808 810 811 814 815 815 816 817 818 819 820 825 829 831 832 836 838 840 842 843
797 798 795 793 792 792 806 811 806 834 882 853 835 820 799 792 787 791 794 797 802 803 806 805 808 810 812 812 814 815 815 818 818 819 818 823 827 828 830 833 836 837 840 841
778 801 801 796 794 791 794 797 814 824 845 847 828 824 807 791 790 793 797 799 802 803 805 806 809 809 811 811 813 816 817 818 818 818 819 823 825 828 829 833 836 837 840 841
774 787 806 799 797 794 799 801 800 804 823 833 843 818 787 780 782 786 789 793 797 800 804 808 808 809 811 812 813 815 816 819 820 820 818 822 825 828 828 833 836 838 839 841
771 793 810 799 793 795 792 791 791 795 814 820 820 805 775 778 776 781 783 787 792 797 803 807 808 810 812 813 815 816 818 818 821 821 821 822 825 827 828 833 837 839 839 841
770 798 818 801 795 796 795 793 789 797 809 815 824 805 779 780 777 777 779 784 790 797 804 806 808 808 810 813 816 818 818 818 821 822 821 825 825 828 831 833 837 840 841 841
756 781 781 783 769 783 791 790 789 789 812 810 805 785 774 775 776 780 782 786 790 794 797 801 804 805 809 813 815 818 819 819 822 820 823 826 827 830 834 834 839 842 844 843
756 781 781 778 775 773 776 777 783 786 773 787 770 782 772 773 774 778 782 787 791 793 795 796 800 803 806 810 815 818 820 821 822 822 825 828 830 832 835 836 841 843 845 845
761 789 787 796 786 773 779 776 777 769 772 769 779 778 766 764 773 778 778 784 786 786 789 793 797 800 803 806 811 815 818 819 821 823 826 829 831 835 836 838 841 844 845 845
763 788 801 802 807 789 782 767 772 766 763 763 774 753 762 766 769 771 773 776 776 778 782 787 790 795 800 804 808 811 815 818 822 825 827 829 834 836 837 840 842 843 845 845
774 784 807 829 821 797 749 751 748 755 757 754 755 755 759 759 758 759 762 765 771 773 777 782 787 792 797 802 807 810 814 819 823 825 827 831 835 836 838 839 840 842 843 843
760 772 800 797 843 782 752 754 759 759 746 750 747 755 756 757 758 758 758 760 760 765 770 775 781 787 792 798 803 809 814 819 821 823 827 831 832 834 837 838 839 841 842 843
762 762 770 813 807 790 746 746 746 746 752 749 745 750 755 762 772 755 759 761 761 764 766 770 776 783 789 796 801 807 812 816 819 823 827 830 832 833 835 837 838 839 839 840
770 773 763 814 809 781 755 747 747 758 752 754 746 749 756 761 756 763 763 763 764 765 766 770 774 779 784 792 800 806 811 815 820 824 826 829 830 832 833 835 836 835 836 836
749 761 778 800 805 760 752 752 749 745 750 753 748 751 755 759 764 766 767 768 768 768 771 773 776 781 787 793 797 804 810 816 820 824 826 829 831 832 834 834 834 834 835 836
744 744 750 745 747 743 749 743 744 746 749 751 751 753 757 763 766 768 769 770 770 770 772 775 779 784 789 793 797 803 809 814 817 821 825 827 829 831 832 832 832 832 833 833
745 745 746 742 739 738 744 747 745 744 748 751 752 755 759 760 763 765 768 771 772 773 774 776 779 783 788 793 798 802 806 811 815 819 821 824 825 827 829 830 831 831 833 833
742 743 747 752 744 743 745 745 745 747 749 751 754 756 757 760 764 766 769 770 770 773 776 779 782 785 789 794 798 802 806 811 814 816 817 819 822 824 826 827 828 829 829 829
745 739 738 740 735 733 735 740 743 747 748 750 753 756 757 760 763 765 767 768 770 772 775 778 781 785 789 792 796 801 806 809 810 812 815 818 821 822 823 824 825 826 827 827